Other Public Products
Issued by NWS Grand Forks, ND

Home | Current Version | Previous Version | Graphics & Text | Print | Product List | Glossary On
Versions: 1 2 3 4 5 6 7 8 9 10 11 12 13 14 15 16 17 18 19 20 21 22 23 24 25 26 27 28 29 30 31 32 33 34 35 36 37 38 39 40 41 42 43 44 45 46 47 48 49 50
000
FPUS83 KFGF 240510
OPUFGF
PRAIRIE TO PINES WEATHER ROUNDUP
NATIONAL WEATHER SERVICE EASTERN NORTH DAKOTA/GRAND FORKS ND
1200 AM CDT THU APR 24 2014

 **SATELLITE DATA USED TO AUGMENT SKY COVER AT AUTOMATED STATIONS**
 *****  WEATHER ACROSS EASTERN NORTH DAKOTA  *****

CITY           SKY/WX    TMP DP  RH WIND       PRES   REMARKS
GRAND FORKS    LGT RAIN  39  36  89 SE16G23   29.83F
GRAND FORKS AF CLOUDY    37  37 100 SE13      29.82F
GRAND CITY NWS   N/A     37 N/A N/A SE12        N/A
BUXTON         NOT AVBL
DEVILS LAKE    CLOUDY    37  34  87 SE14      29.74F
FARGO          CLOUDY    42  37  82 SE15      29.80R
WAHPETON ARPT  CLOUDY    41  34  75 SE15G22   29.81S
$$

 *****  WEATHER ACROSS CENTRAL AND WESTERN NORTH DAKOTA  *****

CITY           SKY/WX    TMP DP  RH WIND       PRES   REMARKS
JAMESTOWN      CLOUDY    40  38  93 SE17G24   29.76R
BISMARCK       CLOUDY    38  32  79 CALM      29.71S
MINOT          PTCLDY    41  39  93 S8        29.65S
MINOT AFB      MOCLDY    40  40 100 S8        29.64S FOG
GARRISON         N/A     38  37  97 S3        29.68R
WILLISTON      PTCLDY    36  34  92 SW3       29.63S
DICKINSON      MOCLDY    35  23  61 S5        29.68S
HETTINGER      MOCLDY    35  27  72 CALM      29.73S
$$

 *****  OTHER OBSERVATIONS NORTHEAST NORTH DAKOTA  *****

CITY           SKY/WX    TMP DP  RH WIND       PRES   REMARKS
WALHALLA       CLOUDY    37  37 100 SE22      29.83F
LANGDON        MIX PCPN  37  36  93 SE22G29   29.77F
CAVALIER       CLOUDY    37  36  93 SE15G23   29.84F
GRAFTON        MIX PCPN  37  37 100 SE14G21   29.84F
CANDO          CLOUDY    37  37 100 SE15G26   29.73F FOG
FORT TOTTEN      N/A     39  38  96 SE14      29.95S
ROLLA          MIX PCPN  37  37 100 SE18      29.72F
RUGBY          CLOUDY    39  39 100 SE16G23   29.68S
 ***** THE ABOVE OBSERVATIONS ARE NON NWS ARE NOT QUALITY
        CONTROLLED AND MAY MIS-REPORT RAIN FOR SNOW...
$$

 *****  OTHER OBSERVATIONS SOUTHEAST NORTH DAKOTA *****

CITY           SKY/WX    TMP DP  RH WIND       PRES   REMARKS
COOPERSTOWN    CLOUDY    37  37 100 SE17      29.77S
VALLEY CITY    CLOUDY    39  39 100 SE17      29.78R
OAKES          CLOUDY    39  39 100 E8        29.75S
GWINNER        CLOUDY    41  41 100 SE15G22   29.77R
SHEYENNE NWR     N/A     41  41  99 SE15      29.95
BUFFALO        NOT AVBL
WYNDMERE       NOT AVBL
 ***** THE ABOVE OBSERVATIONS ARE NON NWS ARE NOT QUALITY
       CONTROLLED AND MAY MIS-REPORT RAIN FOR SNOW...
$$

  *****  WEATHER ACROSS NORTHERN MINNESOTA  *****

CITY           SKY/WX    TMP DP  RH WIND       PRES   REMARKS
FLAG ISLAND    CLOUDY    36  32  87 S7        29.95S
WARROAD        MIX PCPN  39  36  87 SE8       29.94F
ROSEAU         LGT RAIN  37  34  87 SE9       29.93F
HALLOCK        CLOUDY    39  37  93 E16G23    29.87S
THF RVR FALLS  CLOUDY    36  32  87 E18       29.87S
HALSTAD          N/A     40  37  91 SE15        N/A
FOSSTON        CLOUDY    34  34 100 SE14G21   29.85F WCI  24
BAUDETTE       LGT RAIN  39  37  92 SE9       29.96F
WASKISH        RAIN      37  36  93 E9        29.95F
CROOKSTON      CLOUDY    37  37 100 SE14      29.85S
$$
  *****  WEATHER ACROSS CENTRAL AND WEST MINNESOTA  *****

CITY           SKY/WX    TMP DP  RH WIND       PRES   REMARKS
BEMIDJI        LGT SNOW  32  32 100 E8        29.91F WCI  25
PARK RAPIDS    CLOUDY    36  35  96 E12       29.87F
WADENA         CLOUDY    37  36  93 E16       29.85F
DETROIT LAKES  CLOUDY    37  36  93 SE16G29   29.84R
MOORHEAD       CLOUDY    43  41  93 SE18G24   29.81S
FERGUS FALLS   CLOUDY    41  34  75 SE16      29.80S
ELBOW LAKE     CLOUDY    40  36  83 SE17G24   29.81S
MORRIS MN      DRIZZLE   41  36  81 SE21      29.78S
STAPLES        CLOUDY    37  36  93 E8        29.88F
WHEATON        CLOUDY    43  39  87 E16       29.81S
$$
  *****  WEATHER ELSEWHERE ACROSS MINNESOTA  *****

CITY           SKY/WX    TMP DP  RH WIND       PRES   REMARKS
DULUTH         LGT RAIN  35  32  88 E9        30.01S
INTRNTL FALLS  CLOUDY    44  24  45 CALM      29.99R
ELY            CLOUDY    37  21  52 CALM      30.02R
CLOQUET        RAIN      36  34  93 E9        30.00S
BRAINERD       CLOUDY    42  36  79 SE7       29.93F
HIBBING        LGT SNOW  34  32  92 E8        30.00F FOG
ALEXANDRIA     CLOUDY    40  36  86 SE20      29.83F
SAINT CLOUD    CLOUDY    42  37  82 E10G22    29.89F
MINNEAPOLIS    CLOUDY    43  38  82 E10       29.93S
$$

  *****  WEATHER ACROSS SOUTH DAKOTA  *****

CITY           SKY/WX    TMP DP  RH WIND       PRES   REMARKS
SIOUX FALLS    CLOUDY    47  39  74 E17       29.69S
BROOKINGS      NOT AVBL
WATERTOWN      MOCLDY    43  38  82 SE12      29.73R
HURON          CLOUDY    51  40  65 SE8       29.69R
SISSETON         N/A     41  38  89 SE15      29.76S
ABERDEEN       MOCLDY    44  40  85 SE7       29.72S
MITCHELL       CLOUDY    51  42  71 SE14      29.65R
PIERRE         PTCLDY    44  36  73 NW13      29.74R
MOBRIDGE       MOCLDY    40  36  86 CALM      29.73R
RAPID CITY     CLOUDY    41  29  62 N9        29.80R
$$

  *****  SOME WEATHER IN NEARBY STATES *****

CITY           SKY/WX    TMP DP  RH WIND       PRES   REMARKS
GLASGOW MT     CLEAR     44  26  49 W8        29.66R
GREAT FALLS MT PTCLDY    36  27  69 SW14      29.75S
CHEYENNE WY    CLOUDY    43   5  20 NW18G33   29.92R
SCOTTSBLUFF NE CLOUDY    50  31  48 N16       29.84R
OMAHA NE       CLOUDY    51  45  79 N10       29.67F
DES MOINES IA  CLOUDY    52  39  61 SE7       29.80S
DAVENPORT IA   CLOUDY    47  38  71 E21       29.93F
CHICAGO IL     LGT RAIN  41  26  55 E9        30.03F
EAU CLAIRE WI  LGT RAIN  42  40  92 E12       30.00R
LA CROSSE WI   CLOUDY    45  38  76 SE10      30.00R
$$

  *****  SOME NATIONAL WEATHER *****

CITY           SKY/WX    TMP DP  RH WIND       PRES   REMARKS
LA GUARDIA NY  PTCLDY    45  30  55 NW18G31   29.84R
RALEIGH NC     CLEAR     53  33  46 NE6       30.02R
ATLANTA GA     CLEAR     58  37  45 W5        29.95S
NEW ORLEANS LA PTCLDY    67  64  90 S5        29.92F
OKLAHOMA CITY  CLOUDY    68  60  75 E20G28    29.70F THUNDER
ALBUQUERQUE NM CLEAR     57  11  16 NW12      29.95R
SALT LAKE CITY PTCLDY    42  24  49 S7        30.07S
LOS ANGELES CA PTCLDY    62  48  60 W3        29.95R
BOISE ID       MOCLDY    50  33  52 SE6       29.97R
SEATTLE WA     RAIN      48  45  89 E12       29.70F
$$

*** WEATHER ACROSS MANITOBA...SASKATCHEWAN AND ONTARIO ***
                ***ONTARIO***

CITY           SKY/WX    TMP DP  RH WIND       PRES   REMARKS
GERALDTON      MOCLDY    30  21  69 E3        30.10S
THUNDER BAY    CLOUDY    34  28  80 NE3       30.09R
SIOUX LOOKOUT  CLOUDY    39  23  52 S3        30.01R
TORONTO        CLEAR     36  18  48 NW8       30.09R
BIG TROUT LK   CLOUDY    34  19  55 E5        30.12R
PICKLE LAKE    NOT AVBL
DRYDEN         CLOUDY    43  21  42 SE9       29.99R
KENORA         MOCLDY    45  23  42 SE9       29.95S
$$
                *** MANITOBA***

CITY           SKY/WX    TMP DP  RH WIND       PRES   REMARKS
BRANDON        LGT RAIN  37  36  93 SE17      29.76F
DAUPHIN        LGT RAIN  41  37  87 SE18G25   29.79F
ISLAND LAKE    CLEAR     34  25  69 E14       30.11R WCI  24
PILOT MOUND      N/A     37  36  93 SE22        N/A
THE PAS        CLOUDY    37  25  60 E20G29    29.92S
THOMPSON       MOCLDY    27  21  80 NE16G22   30.21S WCI  14
WINNIPEG       LGT RAIN  41  39  93 SE18G24   29.91F
LYNN LAKE      CLEAR     23  19  86 E12G20    30.17S WCI  12
CHURCHILL      FLURRIES  19  14  79 NE13      30.41S WCI   7
GILLAM         CLOUDY    23  21  93 NE13      30.31R WCI  11
$$
                ***SASKATCHEWAN***

CITY           SKY/WX    TMP DP  RH WIND       PRES   REMARKS
ESTEVAN        LGT RAIN  43  43 100 SW3       29.61R
KINDERSLEY     MOCLDY    37  34  87 W9        29.53R
LLOYDMINSTER   LGT RAIN  37  36  93 E16G24    29.49F
PRINCE ALBERT  LGT RAIN  37  36  93 E24G38    29.66S
REGINA         LGT RAIN  45  43  93 W12       29.55R



USA.gov is the U.S. government's official web portal to all federal, state and local government web resources and services.